Regional Weather Roundup
Issued by NWS

Home | Current Version | Previous Version | Graphics & Text | Print | Product List | Glossary On
Versions: 1 2 3 4 5 6 7 8 9 10 11 12 13 14 15 16 17 18 19 20 21 22 23 24 25 26 27 28 29 30 31 32 33 34 35 36 37 38 39 40 41 42 43 44 45 46 47 48 49 50
000
ASUS44 KMEG 220000
RWRTN
TENNESSEE HOURLY STATE WEATHER ROUNDUP
NATIONAL WEATHER SERVICE MEMPHIS TN
700 PM CDT THU MAY 21 2015

TNZ002-004-019-021-049-052-054-088>092-220100-
WEST TENNESSEE

CITY           SKY/WX    TMP DP  RH WIND       PRES   REMARKS
MEMPHIS INTL   CLOUDY    57  45  64 NE8       30.20R
NWS MEMPHIS      N/A     55 N/A N/A MISG        N/A
JACKSON        PTSUNNY   60  47  61 N7        30.18S
DYERSBURG      MOSUNNY   55  36  47 N3        30.20S
PARIS          CLOUDY    55  45  67 N5        30.18R
LEXINGTON      PTCLDY    55  46  71 NW3       30.17R
$$

TNZ008-025-027-028-033-062-065-066-220100-
NORTH MIDDLE TENNESSEE

CITY           SKY/WX    TMP DP  RH WIND       PRES   REMARKS
NASHVILLE      CLOUDY    57  46  66 NW9       30.15S
CLARKSVILLE    CLOUDY    56  45  66 N10       30.17S
COOKEVILLE     CLOUDY    54  48  82 NW5       30.13R
CROSSVILLE     CLOUDY    51  45  79 NW9       30.12R
$$

TNZ061-075-076-078-094-096-097-220100-
SOUTH MIDDLE TENNESSEE

CITY           SKY/WX    TMP DP  RH WIND       PRES   REMARKS
FAYETTEVILLE   CLOUDY   N/A N/A N/A MISG      30.15R
TULLAHOMA      CLOUDY    52  46  82 N7        30.15R
WINCHESTER     CLOUDY    54  46  76 N7        30.15R
MCMINNVILLE    CLOUDY    54  48  82 NW8       30.14R
COLUMBIA       CLOUDY    55  48  76 NW3       30.15R
SHELBYVILLE    CLOUDY    55  48  76 NW7       30.16R
$$

TNZ017-018-042-046-047-220100-
NORTHEAST TENNESSEE

CITY           SKY/WX    TMP DP  RH WIND       PRES   REMARKS
TRI CITIES     CLOUDY    59  48  67 W10       30.04R
ELIZABETHTON   CLOUDY    57  46  67 NW9       30.03R
$$

TNZ012-013-036-069-073-074-220100-
CENTRAL EAST TENNESSEE

CITY           SKY/WX    TMP DP  RH WIND       PRES   REMARKS
KNOXVILLE      CLOUDY    59  48  67 NW8       30.08R
OAK RIDGE      CLOUDY    59  47  64 N5        30.11R
GATLINBURG     CLOUDY    57  46  67 SW8       30.07R
$$

TNZ083-085-099-220100-
SOUTHEAST TENNESSEE

CITY           SKY/WX    TMP DP  RH WIND       PRES   REMARKS
CHATTANOOGA    MOCLDY    58  47  66 NW14      30.11R
$$

SKY/WX REPORTED AS FAIR MEANS FEW OR NO CLOUDS BELOW
12 THOUSAND FEET.



USA.gov is the U.S. government's official web portal to all federal, state and local government web resources and services.